San Antonio Stinson, TX

1:02 AM CST on December 17, 2017 (GMT -0600)
Stinson Municipal

Weather History for KSSF - November, 2011

Change the Weather History Date:

Wednesday, November 9, 2011

  Actual Average Record
Temperature  
Mean Temperature 58 °F -  
Max Temperature 64 °F 70 °F 87 °F (2005)
Min Temperature 52 °F 52 °F 34 °F (2000)
Degree Days  
Heating Degree Days 7    
Growing Degree Days 8 (Base 50)    
Moisture  
Dew Point 35 °F    
Average Humidity 42    
Maximum Humidity 59    
Minimum Humidity 31    
Precipitation  
Precipitation 0.00 in - - ()
Sea Level Pressure  
Sea Level Pressure 30.28 in    
Wind  
Wind Speed 8 mph (North)    
Max Wind Speed 18 mph    
Max Gust Speed 26 mph    
Visibility 10 miles    
Events      
Averages and records for this station are not official NWS values.
T = Trace of Precipitation, MM = Missing Value Source: NWS Daily Summary

Daily Weather History Graph

Daily Weather History Graph

Search for Another Location

Airport or City:

Trip Planner

Search our weather history database for the weather conditions in past years. The results will help you decide how hot, cold, wet, or windy it might be!

Date:

Astronomy

Nov. 09, 2011 Rise Set
Actual Time 6:52 AM CST 5:42 PM CST
Civil Twilight 6:27 AM CST 6:07 PM CST
Nautical Twilight 5:59 AM CST 6:35 PM CST
Astronomical Twilight 5:31 AM CST 7:03 PM CST
Moon 4:55 PM CST (11/9) 5:50 AM CST (11/9)
Length of Visible Light 11h 39m
Length of Day
10h 49m
Waxing Gibbous, 99% of the Moon is Illuminated
Nov 9
Waxing Gibbous
Nov 10
Full
Nov 18
Last Quarter
Nov 25
New
Dec 2
First Quarter

Hourly Weather History & Observations

Time (CST) Temp. Dew Point Humidity Pressure Visibility Wind Dir Wind Speed Gust Speed Precip Events Conditions
12:53 AM 55.9 °F 36.0 °F 47% 30.12 in 10.0 mi NNW 4.6 mph - N/A   Clear
1:53 AM 59.0 °F 30.9 °F 35% 30.12 in 10.0 mi NNW 6.9 mph - N/A   Clear
2:53 AM 59.0 °F 33.1 °F 38% 30.14 in 10.0 mi North 6.9 mph - N/A   Clear
3:53 AM 57.0 °F 37.9 °F 49% 30.16 in 10.0 mi North 9.2 mph - N/A   Clear
4:53 AM 54.0 °F 39.9 °F 59% 30.19 in 10.0 mi North 5.8 mph - N/A   Clear
5:53 AM 54.0 °F 39.9 °F 59% 30.21 in 10.0 mi North 10.4 mph - N/A   Clear
6:53 AM 52.0 °F 37.9 °F 59% 30.24 in 10.0 mi North 10.4 mph 19.6 mph N/A   Clear
8:53 AM 55.0 °F 37.0 °F 51% 30.32 in 10.0 mi NNE 15.0 mph 23.0 mph N/A   Clear
9:53 AM 57.9 °F 37.0 °F 46% 30.33 in 10.0 mi North 18.4 mph 25.3 mph N/A   Scattered Clouds
10:53 AM 60.1 °F 36.0 °F 41% 30.32 in 10.0 mi NNE 17.3 mph 26.5 mph N/A   Clear
11:53 AM 64.0 °F 37.0 °F 37% 30.31 in 10.0 mi NNE 13.8 mph 26.5 mph N/A   Clear
1:53 PM 64.0 °F 35.1 °F 34% 30.27 in 10.0 mi North 13.8 mph 19.6 mph N/A   Mostly Cloudy
2:53 PM 64.0 °F 33.1 °F 31% 30.25 in 10.0 mi North 10.4 mph 18.4 mph N/A   Mostly Cloudy
3:53 PM 63.0 °F 33.1 °F 33% 30.30 in 10.0 mi NNW 8.1 mph - N/A   Overcast
4:53 PM 61.0 °F 33.1 °F 35% 30.30 in 10.0 mi NNE 6.9 mph - 0.00 in   Scattered Clouds
5:53 PM 59.0 °F 37.0 °F 44% 30.31 in 10.0 mi Calm Calm - 0.00 in   Overcast
6:53 PM 61.0 °F 33.1 °F 35% 30.34 in 10.0 mi NNE 8.1 mph - N/A   Mostly Cloudy
7:53 PM 60.1 °F 32.0 °F 35% 30.36 in 10.0 mi North 6.9 mph - N/A   Scattered Clouds
8:53 PM 59.0 °F 33.1 °F 38% 30.37 in 10.0 mi North 3.5 mph - N/A   Clear
9:53 PM 59.0 °F 30.9 °F 35% 30.40 in 10.0 mi NNW 6.9 mph - N/A   Clear
10:53 PM 57.9 °F 30.9 °F 36% 30.39 in 10.0 mi NNW 6.9 mph - N/A   Clear
11:53 PM 55.9 °F 30.0 °F 37% 30.40 in 10.0 mi North 9.2 mph - N/A   Clear